Location: Cambridge (historical)
(38.6883°N, 119.0140°W)
Time: 17:21:35
(UTC+00:00)

H-2A R/B - Pass Details

Date: 29 October 2020
Orbit: 499 x 541 km, 97.3° (Epoch: 13 November)

Event Time Altitude Azimuth Distance (km) Brightness Sun altitude
Rises 13:11:38 0° 19° (NNE) 2,655 6.5 -13.9°
Reaches altitude 10° 13:13:49 10° 26° (NNE) 1,770 5.7 -13.5°
Maximum altitude 13:17:27 42° 99° (E) 761 4.1 -12.8°
Drops below altitude 10° 13:21:07 10° 171° (S) 1,778 5.6 -12.1°
Sets 13:23:18 0° 178° (S) 2,669 6.5 -11.7°
